Simultaneous Nadir Overpasses (SNOs) Predictions

Prediction of SNOs near US between AQUA and NPP Satellite Orbit:

Table of predicted SNOs near US for the next 10.0 days since TLE Epoch: 8/20/2016
Index Date (AQUA) Time (AQUA) AQUA Lat,Lon Date (NPP) Time (NPP) NPP Lat,Lon Distance(km) Time Diff (sec)
1 08/20/2016 06:29:56 46.36, -65.04 08/20/2016 06:31:01 46.76, -66.97 153.87 65
2 08/20/2016 08:07:49 49.93, -88.34 08/20/2016 08:11:27 50.43, -90.77 181.75 218
3 08/20/2016 09:46:42 49.93,-113.06 08/20/2016 09:52:55 50.54,-116.09 226.12 373
4 08/22/2016 19:05:57 49.98, -92.53 08/22/2016 19:01:42 49.64, -94.33 134.81 255
5 08/22/2016 20:44:50 49.98,-117.25 08/22/2016 20:43:10 49.54,-119.66 180.08 100
6 08/25/2016 08:34:30 20.50,-101.76 08/25/2016 08:26:18 20.52,-101.86 10.31 492
7 08/25/2016 10:10:52
